TimeMST,TemperatureF,Dew PointF,Humidity,Sea Level PressureIn,VisibilityMPH,Wind Direction,Wind SpeedMPH,Gust SpeedMPH,PrecipitationIn,Events,Conditions,WindDirDegrees,DateUTC
12:51 AM,54.0,14.0,21,29.93,10.0,SSE,8.1,-,N/A,,Scattered Clouds,150,2014-02-13 07:51:00
1:51 AM,57.9,12.9,17,29.91,10.0,Calm,Calm,-,N/A,,Scattered Clouds,0,2014-02-13 08:51:00
2:51 AM,54.0,12.9,20,29.91,10.0,SSW,11.5,-,N/A,,Partly Cloudy,200,2014-02-13 09:51:00
3:51 AM,52.0,12.0,20,29.91,10.0,SSW,11.5,-,N/A,,Partly Cloudy,210,2014-02-13 10:51:00
4:51 AM,45.0,12.0,26,29.93,10.0,SSE,6.9,-,N/A,,Partly Cloudy,150,2014-02-13 11:51:00
5:51 AM,45.0,12.9,27,29.95,10.0,Calm,Calm,-,N/A,,Partly Cloudy,0,2014-02-13 12:51:00
6:51 AM,43.0,12.9,30,29.99,10.0,SSE,4.6,-,N/A,,Scattered Clouds,150,2014-02-13 13:51:00
7:51 AM,46.0,12.9,26,30.01,10.0,Calm,Calm,-,N/A,,Scattered Clouds,0,2014-02-13 14:51:00
8:51 AM,51.1,14.0,23,30.01,10.0,Calm,Calm,-,N/A,,Mostly Cloudy,0,2014-02-13 15:51:00
9:51 AM,60.1,16.0,18,29.99,10.0,NNW,4.6,-,N/A,,Mostly Cloudy,330,2014-02-13 16:51:00
10:51 AM,66.9,19.9,17,29.98,10.0,NW,8.1,-,N/A,,Scattered Clouds,310,2014-02-13 17:51:00
11:51 AM,71.1,19.9,14,29.95,10.0,North,8.1,-,N/A,,Scattered Clouds,360,2014-02-13 18:51:00
12:51 PM,71.1,19.9,14,29.91,10.0,WNW,11.5,-,N/A,,Partly Cloudy,300,2014-02-13 19:51:00
1:51 PM,73.0,19.9,14,29.85,10.0,West,9.2,19.6,N/A,,Partly Cloudy,270,2014-02-13 20:51:00
2:51 PM,75.0,19.0,12,29.83,10.0,NW,16.1,25.3,N/A,,Partly Cloudy,320,2014-02-13 21:51:00
3:51 PM,75.9,19.0,12,29.83,10.0,NW,11.5,19.6,N/A,,Partly Cloudy,320,2014-02-13 22:51:00
4:51 PM,75.0,19.0,12,29.83,10.0,West,10.4,-,N/A,,Scattered Clouds,280,2014-02-13 23:51:00
5:51 PM,72.0,18.0,13,29.85,10.0,West,10.4,-,N/A,,Scattered Clouds,270,2014-02-14 00:51:00
6:51 PM,66.0,18.0,16,29.86,10.0,WSW,8.1,-,N/A,,Scattered Clouds,240,2014-02-14 01:51:00
7:51 PM,68.0,18.0,15,29.87,10.0,WSW,12.7,-,N/A,,Scattered Clouds,250,2014-02-14 02:51:00
8:51 PM,69.1,17.1,14,29.87,10.0,West,15.0,-,N/A,,Scattered Clouds,280,2014-02-14 03:51:00
9:51 PM,69.1,17.1,14,29.84,10.0,West,20.7,26.5,N/A,,Scattered Clouds,280,2014-02-14 04:51:00
10:51 PM,68.0,17.1,14,29.82,10.0,WNW,16.1,-,N/A,,Partly Cloudy,290,2014-02-14 05:51:00
11:51 PM,66.9,17.1,15,29.82,10.0,West,12.7,-,N/A,,Partly Cloudy,280,2014-02-14 06:51:00